Regional Weather Roundup
Issued by NWS Kansas City/Pleasant Hill, MO

Home | Current Version | Previous Version | Graphics & Text | Print | Product List | Glossary Off
Versions: 1 2 3 4 5 6 7 8 9 10 11 12 13 14 15 16 17 18 19 20 21 22 23 24 25 26 27 28 29 30 31 32 33 34 35 36 37 38 39 40 41 42 43 44 45 46 47 48 49 50

010
ASUS43 KEAX 160010
RWREAX

WEATHER ROUNDUP FOR EASTERN KANSAS AND NORTHWEST MISSOURI
NATIONAL WEATHER SERVICE KANSAS CITY/PLEASANT HILL MO
700 PM CDT TUE AUG 15 2017

KSZ040-057-103>105-MOZ028-029-037-043-160100-
...KANSAS CITY METROPOLITAN AREA...

CITY           SKY/WX    TMP DP  RH WIND       PRES   REMARKS
K.C. INTL      PTSUNNY   83  71  67 SE9       29.84R
6HR MIN TEMP:  83; 6HR MAX TEMP:  87;

K.C. DOWNTOWN  MOSUNNY   87  70  56 SE12      29.82R HX  92
6HR MIN TEMP:  86; 6HR MAX TEMP:  90;

LEES SUMMIT    SUNNY     84  72  67 SE9       29.85R
6HR MIN TEMP:  82; 6HR MAX TEMP:  86;

OLATHE - IXD   MOSUNNY   83  71  67 SE10      29.84F
6HR MIN TEMP:  82; 6HR MAX TEMP:  87;

OLATHE - OJC   SUNNY     82  72  71 SE12      29.84S
6HR MIN TEMP:  81; 6HR MAX TEMP:  85;

LAWRENCE       MOSUNNY   84  73  69 SE8       29.82S HX  90

$$

MOZ001>008-011>017-020>025-030>033-038>040-044>046-053-054-160100-
...NORTHERN AND CENTRAL MISSOURI...

CITY           SKY/WX    TMP DP  RH WIND       PRES   REMARKS
ST. JOSEPH     SUNNY     84  71  65 SE9       29.82R
6HR MIN TEMP:  84; 6HR MAX TEMP:  89;

MOSBY          PTCLDY    82  70  65 SE5       29.84R
WARRENSBURG    SUNNY     82  70  65 SE6       29.84F
WHITEMAN AFB   MOSUNNY   83  75  77 SE6       29.84S HX  91
6HR MIN TEMP:  83; 6HR MAX TEMP:  86;

CLINTON        MOSUNNY   82  73  74 E5        29.84F
SEDALIA        SUNNY     84  74  71 E5        29.87R HX  91
6HR MIN TEMP:  84; 6HR MAX TEMP:  89;

WARSAW         NOT AVBL
CHILLICOTHE      N/A     85  71  63 VRB6      29.85S HX  90
6HR MIN TEMP:  85; 6HR MAX TEMP:  91;

KIRKSVILLE     SUNNY     81  68  64 E10       29.87F
6HR MIN TEMP:  78; 6HR MAX TEMP:  92;


$$

MOZ041-047>049-056>058-063>065-088>090-097-160100-
...EASTERN AND SOUTHERN MISSOURI...

CITY           SKY/WX    TMP DP  RH WIND       PRES   REMARKS
ST. LOUIS INTL MOCLDY    87  69  54 E10       29.86F HX  91
6HR MIN TEMP:  85; 6HR MAX TEMP:  91;

SPIRIT OF STL  MOCLDY    88  70  55 NE8       29.84S HX  93
COLUMBIA       SUNNY     85  69  58 E5        29.87R
JEFFERSON CITY SUNNY     86  73  65 E5        29.84R HX  93
ROLLA          MOSUNNY   83  73  72 E3        29.89R
OSAGE BEACH    SUNNY     84  71  65 CALM      29.87R
SPRINGFIELD    CLOUDY    82  73  74 SE6       29.86F
BRANSON        PTSUNNY   82  73  74 SE7       29.88S
JOPLIN         CLOUDY    84  74  71 E7        29.83S HX  91
WEST PLAINS    MOSUNNY   82  72  71 S8        29.91R

$$

IAZ060-094-KSZ022-034>040-054-083-096-NEZ052-066-093-160100-
...KANSAS...SOUTHEAST NEBRASKA AND IOWA...

CITY           SKY/WX    TMP DP  RH WIND       PRES   REMARKS
TOPEKA         MOSUNNY   84  73  69 SE12      29.81S HX  90
6HR MIN TEMP:  84; 6HR MAX TEMP:  89;

MANHATTAN      CLOUDY    85  71  63 SE8       29.79S HX  90
EMPORIA        CLOUDY    82  72  71 SE7       29.82R
CHANUTE        CLOUDY    83  74  74 SE5       29.82S
WICHITA        CLOUDY    83  73  72 SE10G21   29.79S
OMAHA          MOSUNNY   83  71  67 E10       29.81R
LINCOLN        MOSUNNY   85  71  63 E14       29.78S HX  90
FALLS CITY     MOSUNNY   84  70  62 SE8       29.80S
LAMONI         SUNNY     81  69  67 E6        29.85F
DES MOINES     MOSUNNY   76  69  79 NE12      29.86F

$$





USA.gov is the U.S. government's official web portal to all federal, state and local government web resources and services.